map of LAO home
Great Circle Mapper logo
LAO - Airport
Location
City:  Laoag, Luzon Island, Philippines
Name:Laoag International Airport
ICAO:RPLI
IATA:LAO

Details
Type:Airport (Aerodrome, Airfield)
Use:Public/Civil, International (customs port of entry)
Latitude:1810'41"N (18.178092)
Longitude:12031'53"E (120.531522)
Datum:WGS 1984
Elevation:25 ft (8 m)
Variation:2.74W (WMM2015 magnetic declination)
-0.09 annual change
Runways:1
Longest:9120 × 148 ft (2780 × 45 m), paved

Time
Time Zone:UTC+8
Local Time:

Weather
METAR:RPLI 271200Z 11008KT 9999 SCT019 BKN100 27/24 Q1010 RERA RMK A2982
TAF:RPLI 271100Z 2712/2812 32008KT 9999 FEW019 SCT290
TEMPO 2712/2718 14005KT 8000 -TSRA FEW018CB SCT019 BKN100

Related Locations
Nearby:
Farthest:SLSQ: 12440 mi / 20020 km
Santiago de Chiquitos [Santiago de Chiquitos Airport], S, BO

Find:

   beyond  
but within

Other Information
Maps:
NOTAMs:
Links:
Sources:

  
flag of Philippines   

Sectional Chart

Flight Planning
at skyvector.com

Satellite Image

Google Maps Satellite view

 

Copyright © 2004-2016 Karl L. Swartz. All rights reserved.
The Great Circle Mapper name and logo are trademarks of the Great Circle Mapper.
All other trademarks mentioned herein belong to their respective owners.
Please see credits for attibutions and further copyright information.

  Follow gcmap on Facebook Follow gcmap on Twitter Follow gcmap on Google+ GCmap on LinkedIn

hCard Microformat

Geo Microformat